Tracking 18850 objects as of 22-Nov-2017
HD Live streaming from Space Station
objects crossing your sky now

TVSAT 1

Track TVSAT 1 now!
TVSAT 1 is classified as:


NORAD ID: 18570
Int'l Code: 1987-095A
Perigee: 35,947.1 km
Apogee: 36,407.8 km
Inclination: 14.9 °
Period: 1,455.7 minutes
Semi major axis: 42548 km
RCS: 3.1623 m2 (large)
Launch date: November 21, 1987
Source: Germany (GER)
Launch site: FRENCH GUIANA (FRGUI)
aabbcc
Your satellite tracking list
Your tracking list is empty




NASA's NSSDC Master Catalog

Two Line Element Set (TLE):
1 18570U 87095A   17325.72615664 -.00000027  00000-0  00000+0 0  9994
2 18570  14.8760 353.4479 0054147  47.9960 130.2377  0.98918460 97891
Source of the keplerian elements: AFSPC